Погода в Селиванове

Россия / Тульская область     53°59′31″N   37°15′11″E
темп.,
°C
ветер,
м/с
пор.,
м/с
влажн.,
%
обл.,
%
осадки,
мм/ч
давл.,
гПа
погр.,
м
5 марта, пт
пт500:00−3ссз4896100 0.3 1002319
03:00−5сз3696100 0.3 1005159
06:00−7зсз349672 0.0 100764
09:00−7зсз359651 0.0 1009145
12:00−3сз359049 0.0 1010468
15:00−2зсз358170 0.2 1011888
18:00−5з348728 0.1 101338
21:00−8зсз228814 0.1 101521
6 марта, сб
сб600:00−10зюз119019 0.0 101521
03:00−10ююз129126 0.0 101621
06:00−8ююз2297100 0.5 101677
09:00−8з129599 0.9 1017121
12:00−5с4692100 0.2 1017569
15:00−4ссз5680100 0.4 1017866
18:00−8зсз348621 0.1 101735
21:00−10з348810 0.1 101854
7 марта, вс
вс700:00−11зюз459119 0.0 101787
03:00−11юз5129110 0.0 1015228
06:00−9юз8168666 0.0 1011463
09:00−6юз10188283 0.0 1007771
12:00−4юз121993100 0.6 10011153
15:00−1зюз121990100 1.3 9981453
18:00−6зсз61569100 2.0 1000816
21:00−9зюз6147750 2.0 1003342
8 марта, пн
пн800:00−8зюз715788 0.0 1001410
03:00−8юз8178131 0.0 999580
06:00−6зюз9159093 0.1 998998
09:00−9зсз7148680 0.5 1001861
12:00−8зсз8118394 0.1 1004916
15:00−7зсз8127678 0.1 10071240
18:00−9з5108273 0.0 1008268
21:00−11з479082 0.0 1011117
9 марта, вт
вт900:00−13з34948 0.0 101257
03:00−14сз229644 0.0 101320
06:00−13с229699 0.1 101454
09:00−12с469399 0.1 1016390
12:00−11с4588100 0.1 1017623
15:00−11ссз5787100 0.1 1018721
18:00−14сз4890100 0.0 1020172
21:00−17сз348860 0.0 102251